Weather History for LKTB - October, 2012

Change the Weather History Date:

Sunday, October 28, 2012

  Actual Average Record
Temperature  
Mean Temperature 35 °F -  
Max Temperature 40 °F 45 °F - ()
Min Temperature 30 °F 34 °F - ()
Degree Days  
Heating Degree Days 30    
Moisture  
Dew Point 28 °F    
Average Humidity 74    
Maximum Humidity 87    
Minimum Humidity 49    
Precipitation  
Precipitation 0.00 in 0.05 in - ()
Sea Level Pressure  
Sea Level Pressure 29.75 in    
Wind  
Wind Speed 12 mph ()    
Max Wind Speed 20 mph    
Max Gust Speed -    
Visibility 6.2 miles    
Events Snow    
T = Trace of Precipitation, MM = Missing Value Source: Averaged Metar Reports

Daily Weather History Graph

Daily Weather History Graph

Search for Another Location

Airport or City:

Trip Planner

Search our weather history database for the weather conditions in past years. The results will help you decide how hot, cold, wet, or windy it might be!

Date:

Astronomy

Oct. 28, 2012 Rise Set
Actual Time 6:34 AM CET 4:38 PM CET
Civil Twilight 6:01 AM CET 5:11 PM CET
Nautical Twilight 5:24 AM CET 5:48 PM CET
Astronomical Twilight 4:47 AM CET 6:25 PM CET
Moon 3:48 PM CET (10/28) 5:07 AM CET (10/28)
Length of Visible Light 11h 09m
Length of Day
10h 03m
Waxing Gibbous, 98% of the Moon is Illuminated
Oct 28
Waxing Gibbous
Oct 29
Full
Nov 7
Last Quarter
Nov 13
New
Nov 20
First Quarter

Hourly Weather History & Observations

Time (CET) Temp. Windchill Dew Point Humidity Pressure Visibility Wind Dir Wind Speed Gust Speed Precip Events Conditions
12:00 AM 33.8 °F 25.3 °F 28.4 °F 81% 29.53 in 6.2 mi NNW 11.5 mph - N/A Snow Light Snow
12:30 AM 33.8 °F 24.8 °F 26.6 °F 75% 29.56 in 6.2 mi NNW 12.7 mph - N/A Snow Light Snow
1:00 AM 33.8 °F 25.3 °F 26.6 °F 75% 29.56 in 6.2 mi NNW 11.5 mph - N/A Snow Light Snow
1:30 AM 33.8 °F 24.8 °F 26.6 °F 75% 29.59 in 6.2 mi NNW 12.7 mph - N/A Snow Light Snow
2:00 AM 33 °F - 27 °F 70% 29.64 in 9 mi NNW 8.9 mph - - Snow Light Snow
2:00 AM 33.8 °F 25.8 °F 26.6 °F 75% 29.59 in 6.2 mi NNW 10.4 mph - N/A Snow Light Snow
2:30 AM 33.8 °F 25.3 °F 26.6 °F 75% 29.59 in 4.3 mi NW 11.5 mph - N/A Snow Light Snow
2:00 AM 32.0 °F 22.5 °F 28.4 °F 87% 29.62 in 3.1 mi NW 12.7 mph - N/A Snow Light Snow
2:19 AM 32.0 °F 22.5 °F 28.4 °F 87% 29.62 in 1.9 mi NW 12.7 mph - N/A Snow Light Snow
2:30 AM 32.0 °F 22.5 °F 28.4 °F 87% 29.62 in 1.6 mi NW 12.7 mph - N/A Snow Light Snow
3:00 AM 32.0 °F 22.5 °F 28.4 °F 87% 29.62 in 1.2 mi NW 12.7 mph - N/A Snow Snow
3:30 AM 32.0 °F 22.1 °F 28.4 °F 87% 29.62 in 1.9 mi NNW 13.8 mph - N/A Snow Light Snow
3:42 AM 32.0 °F 22.1 °F 28.4 °F 87% 29.62 in 3.1 mi NNW 13.8 mph - N/A Snow Light Snow
4:00 AM 32.0 °F 21.2 °F 28.4 °F 87% 29.62 in 6.2 mi NNW 16.1 mph - N/A Snow Light Snow
4:30 AM 32.0 °F 21.6 °F 28.4 °F 87% 29.65 in 6.2 mi NNW 15.0 mph - N/A Snow Light Snow
5:00 AM 32.0 °F 21.2 °F 26.6 °F 80% 29.65 in 6.2 mi NNW 16.1 mph - N/A   Partly Cloudy
5:30 AM 32.0 °F 20.5 °F 26.6 °F 80% 29.68 in - NNW 18.4 mph - N/A   Clear
6:00 AM 32.0 °F 22.1 °F 26.6 °F 80% 29.68 in - NNW 13.8 mph - N/A   Clear
6:30 AM 32.0 °F 21.2 °F 26.6 °F 80% 29.68 in 6.2 mi NNW 16.1 mph - N/A   Partly Cloudy
7:00 AM 33 °F - 27 °F 69% 29.75 in 19 mi NNW 15.7 mph - -   Partly Cloudy
7:00 AM 32.0 °F 21.6 °F 26.6 °F 80% 29.68 in 6.2 mi NNW 15.0 mph - N/A   Partly Cloudy
7:30 AM 33.8 °F 23.9 °F 26.6 °F 75% 29.71 in 6.2 mi NNW 15.0 mph - N/A   Scattered Clouds
8:00 AM 33.8 °F 25.3 °F 26.6 °F 75% 29.71 in 6.2 mi NNW 11.5 mph - N/A   Scattered Clouds
8:30 AM 33.8 °F 24.8 °F 26.6 °F 75% 29.74 in 6.2 mi NNW 12.7 mph - N/A   Scattered Clouds
9:00 AM 33.8 °F 24.3 °F 28.4 °F 81% 29.74 in 6.2 mi NNW 13.8 mph - N/A   Scattered Clouds
9:04 AM 33.8 °F 24.3 °F 28.4 °F 81% 29.74 in 6.2 mi NNW 13.8 mph - N/A Snow Light Snow
9:30 AM 35.6 °F 25.9 °F 28.4 °F 75% 29.74 in 6.2 mi NNW 16.1 mph - N/A   Partly Cloudy
10:00 AM 35.6 °F 25.9 °F 26.6 °F 70% 29.77 in 6.2 mi NNW 16.1 mph - N/A   Partly Cloudy
10:30 AM 35.6 °F 25.9 °F 28.4 °F 75% 29.77 in 6.2 mi NNW 16.1 mph - N/A   Partly Cloudy
11:00 AM 35.6 °F 25.9 °F 26.6 °F 70% 29.77 in 6.2 mi NNW 16.1 mph - N/A   Partly Cloudy
11:30 AM 37.4 °F 27.2 °F 28.4 °F 70% 29.77 in 6.2 mi NNW 19.6 mph - N/A   Partly Cloudy
12:00 PM 37.4 °F 28.2 °F 28.4 °F 70% 29.77 in 6.2 mi NNW 16.1 mph - N/A   Partly Cloudy
12:30 PM 39.2 °F 31.2 °F 28.4 °F 65% 29.80 in 6.2 mi North 13.8 mph - N/A   Partly Cloudy
1:00 PM 40 °F - 27 °F 49% 29.84 in 19 mi North 15.7 mph - -   Partly Cloudy
1:00 PM 39.2 °F 30.5 °F 28.4 °F 65% 29.80 in 6.2 mi North 16.1 mph - N/A   Scattered Clouds
1:30 PM 39.2 °F 31.2 °F 28.4 °F 65% 29.80 in 6.2 mi North 13.8 mph - N/A   Mostly Cloudy
2:00 PM 39.2 °F 31.6 °F 26.6 °F 61% 29.80 in 6.2 mi North 12.7 mph - N/A   Mostly Cloudy
2:30 PM 39.2 °F 30.5 °F 26.6 °F 61% 29.83 in 6.2 mi North 16.1 mph - N/A   Mostly Cloudy
3:00 PM 39.2 °F 31.2 °F 28.4 °F 65% 29.83 in 6.2 mi North 13.8 mph - N/A   Mostly Cloudy
3:30 PM 39.2 °F 31.2 °F 26.6 °F 61% 29.83 in 6.2 mi North 13.8 mph - N/A   Mostly Cloudy
4:00 PM 39.2 °F 32.0 °F 28.4 °F 65% 29.83 in 6.2 mi North 11.5 mph - N/A   Partly Cloudy
4:30 PM 37.4 °F 29.3 °F 28.4 °F 70% 29.83 in 6.2 mi North 12.7 mph - N/A   Partly Cloudy
5:00 PM 37.4 °F 30.8 °F 28.4 °F 70% 29.86 in 6.2 mi North 9.2 mph - N/A   Partly Cloudy
5:30 PM 35.6 °F 30.7 °F 28.4 °F 75% 29.86 in 6.2 mi North 5.8 mph - N/A   Partly Cloudy
6:00 PM 35.6 °F 32.8 °F 28.4 °F 75% 29.89 in 6.2 mi North 3.5 mph - N/A   Scattered Clouds
6:30 PM 35.6 °F - 28.4 °F 75% 29.92 in 6.2 mi Variable 2.3 mph - N/A   Scattered Clouds
7:00 PM 35 °F - 28 °F 67% 29.96 in 25 mi North 4.5 mph - -   Scattered Clouds
7:00 PM 35.6 °F 31.7 °F 28.4 °F 75% 29.92 in 6.2 mi North 4.6 mph - N/A   Partly Cloudy
7:30 PM 35.6 °F 30.7 °F 28.4 °F 75% 29.92 in 6.2 mi North 5.8 mph - N/A   Partly Cloudy
8:00 PM 35.6 °F 29.2 °F 28.4 °F 75% 29.89 in 6.2 mi North 8.1 mph - N/A   Partly Cloudy
8:30 PM 35.6 °F 28.6 °F 26.6 °F 70% 29.92 in 6.2 mi North 9.2 mph - N/A   Scattered Clouds
9:00 PM 35.6 °F 27.1 °F 26.6 °F 70% 29.92 in 6.2 mi North 12.7 mph - N/A   Partly Cloudy
9:30 PM 35.6 °F 28.0 °F 26.6 °F 70% 29.92 in 6.2 mi NNE 10.4 mph - N/A   Partly Cloudy
10:00 PM 35.6 °F 27.5 °F 26.6 °F 70% 29.92 in 6.2 mi NNE 11.5 mph - N/A   Partly Cloudy
10:30 PM 35.6 °F 27.5 °F 26.6 °F 70% 29.92 in 6.2 mi North 11.5 mph - N/A   Partly Cloudy